• In Österreich
  • Länderverzeichnis
  • Für 7 Tage
  • Wassertemperatur
  • Satellitenkarten
  • Wetterkarte
  • News
  • Widgets
  • user-avatar
    Anmelden

    Stündliche Wetter La Rioja

    Heute, 26 Mai, Samstag

    Zeit Temperatur Niederschläge Wind Luftdruck Luftfeuchtigkeit
    00:00 +16°C° 0 mm 1 m/S 713 mmHg 64%
    01:00 +15°C° 0 mm 1 m/S 712 mmHg 65%
    02:00 +15°C° 0 mm 1 m/S 712 mmHg 66%
    03:00 +15°C° 0 mm 2 m/S 712 mmHg 66%
    04:00 +14°C° 0 mm 2 m/S 711 mmHg 66%
    05:00 +14°C° 0 mm 2 m/S 711 mmHg 66%
    06:00 +14°C° 0 mm 2 m/S 711 mmHg 64%
    07:00 +15°C° 0 mm 2 m/S 711 mmHg 62%
    08:00 +15°C° 0 mm 2 m/S 711 mmHg 61%
    09:00 +17°C° 0 mm 2 m/S 711 mmHg 54%
    10:00 +19°C° 0 mm 2 m/S 711 mmHg 47%
    11:00 +23°C° 0 mm 2 m/S 711 mmHg 40%
    12:00 +24°C° 0 mm 2 m/S 711 mmHg 38%
    13:00 +25°C° 0 mm 2 m/S 710 mmHg 35%
    14:00 +26°C° 0 mm 2 m/S 710 mmHg 33%
    15:00 +26°C° 0 mm 2 m/S 710 mmHg 35%
    16:00 +25°C° 0 mm 2 m/S 710 mmHg 37%
    17:00 +25°C° 0 mm 2 m/S 710 mmHg 38%
    18:00 +23°C° 0 mm 2 m/S 711 mmHg 44%
    19:00 +20°C° 0 mm 2 m/S 711 mmHg 50%
    20:00 +18°C° 0 mm 2 m/S 712 mmHg 55%
    21:00 +18°C° 0 mm 2 m/S 712 mmHg 57%
    22:00 +18°C° 0 mm 2 m/S 713 mmHg 59%
    23:00 +18°C° 0 mm 1 m/S 713 mmHg 62%

    Morgen, 27 Mai, Sonntag

    Zeit Temperatur Niederschläge Wind Luftdruck Luftfeuchtigkeit
    00:00 +17°C° 0 mm 2 m/S 713 mmHg 63%
    01:00 +16°C° 0 mm 2 m/S 713 mmHg 65%
    02:00 +16°C° 0 mm 2 m/S 713 mmHg 67%
    03:00 +15°C° 0 mm 2 m/S 714 mmHg 69%
    04:00 +15°C° 0 mm 2 m/S 714 mmHg 71%
    05:00 +14°C° 0 mm 1 m/S 714 mmHg 73%
    06:00 +15°C° 0 mm 1 m/S 714 mmHg 72%
    07:00 +15°C° 0 mm 1 m/S 715 mmHg 72%
    08:00 +16°C° 0 mm 1 m/S 715 mmHg 71%
    09:00 +19°C° 0 mm 1 m/S 715 mmHg 63%
    10:00 +20°C° 0 mm 2 m/S 716 mmHg 55%
    11:00 +23°C° 0 mm 2 m/S 716 mmHg 47%
    12:00 +24°C° 0 mm 2 m/S 715 mmHg 45%
    13:00 +25°C° 0 mm 2 m/S 714 mmHg 43%
    14:00 +26°C° 0 mm 3 m/S 713 mmHg 40%
    15:00 +25°C° 0 mm 2 m/S 713 mmHg 42%
    16:00 +25°C° 0 mm 2 m/S 712 mmHg 44%
    17:00 +24°C° 0 mm 2 m/S 712 mmHg 46%
    18:00 +23°C° 0 mm 2 m/S 712 mmHg 51%
    19:00 +20°C° 0 mm 2 m/S 712 mmHg 57%
    20:00 +19°C° 0 mm 2 m/S 712 mmHg 62%
    21:00 +19°C° 0 mm 2 m/S 712 mmHg 62%
    22:00 +18°C° 0 mm 2 m/S 711 mmHg 62%
    23:00 +19°C° 0 mm 1 m/S 711 mmHg 62%

    übermorgen, 28 Mai, Montag

    Zeit Temperatur Niederschläge Wind Luftdruck Luftfeuchtigkeit
    00:00 +19°C° 0 mm 1 m/S 711 mmHg 64%
    01:00 +18°C° 0 mm 1 m/S 710 mmHg 65%
    02:00 +18°C° 0 mm 1 m/S 710 mmHg 66%
    03:00 +18°C° 0 mm 1 m/S 709 mmHg 66%
    04:00 +16°C° 0 mm 1 m/S 709 mmHg 66%
    05:00 +16°C° 0 mm 1 m/S 709 mmHg 65%
    06:00 +18°C° 0 mm 1 m/S 709 mmHg 65%
    07:00 +17°C° 0 mm 2 m/S 709 mmHg 65%
    08:00 +18°C° 0 mm 2 m/S 709 mmHg 64%
    09:00 +20°C° 0 mm 2 m/S 709 mmHg 56%
    10:00 +24°C° 0 mm 2 m/S 709 mmHg 48%
    11:00 +26°C° 0 mm 2 m/S 710 mmHg 39%
    12:00 +27°C° 0 mm 2 m/S 709 mmHg 36%
    13:00 +28°C° 0 mm 2 m/S 708 mmHg 32%
    14:00 +29°C° 0 mm 2 m/S 707 mmHg 28%
    15:00 +29°C° 0 mm 2 m/S 707 mmHg 29%
    16:00 +28°C° 0 mm 2 m/S 707 mmHg 31%
    17:00 +27°C° 0 mm 2 m/S 706 mmHg 32%
    18:00 +26°C° 0 mm 2 m/S 706 mmHg 35%
    19:00 +24°C° 0 mm 2 m/S 707 mmHg 37%
    20:00 +21°C° 0 mm 2 m/S 707 mmHg 39%
    21:00 +21°C° 0 mm 2 m/S 707 mmHg 38%
    22:00 +21°C° 0 mm 2 m/S 707 mmHg 37%
    23:00 +20°C° 0 mm 2 m/S 707 mmHg 36%

    29 Mai, Dienstag

    Zeit Temperatur Niederschläge Wind Luftdruck Luftfeuchtigkeit
    00:00 +20°C° 0 mm 2 m/S 707 mmHg 38%
    01:00 +20°C° 0 mm 2 m/S 707 mmHg 39%
    02:00 +20°C° 0 mm 2 m/S 707 mmHg 40%
    03:00 +19°C° 0 mm 2 m/S 707 mmHg 42%
    04:00 +19°C° 0 mm 2 m/S 707 mmHg 45%
    05:00 +19°C° 0 mm 2 m/S 707 mmHg 48%
    06:00 +19°C° 0 mm 2 m/S 707 mmHg 50%
    07:00 +19°C° 0 mm 2 m/S 708 mmHg 51%
    08:00 +20°C° 0 mm 2 m/S 708 mmHg 53%
    09:00 +23°C° 0 mm 2 m/S 709 mmHg 49%
    10:00 +25°C° 0 mm 2 m/S 709 mmHg 46%
    11:00 +28°C° 0 mm 2 m/S 709 mmHg 42%
    12:00 +29°C° 0 mm 3 m/S 709 mmHg 38%
    13:00 +29°C° 0 mm 3 m/S 709 mmHg 34%
    14:00 +30°C° 0 mm 3 m/S 708 mmHg 31%
    15:00 +29°C° 0 mm 3 m/S 709 mmHg 31%
    16:00 +29°C° 0 mm 3 m/S 709 mmHg 31%
    17:00 +28°C° 0 mm 3 m/S 710 mmHg 32%
    18:00 +26°C° 0 mm 4 m/S 711 mmHg 35%
    19:00 +23°C° 0 mm 4 m/S 712 mmHg 39%
    20:00 +21°C° 0 mm 4 m/S 713 mmHg 42%
    21:00 +21°C° 0 mm 4 m/S 713 mmHg 46%
    22:00 +20°C° 0 mm 3 m/S 714 mmHg 50%
    23:00 +19°C° 0 mm 3 m/S 714 mmHg 54%

    30 Mai, Mittwoch

    Zeit Temperatur Niederschläge Wind Luftdruck Luftfeuchtigkeit
    00:00 +19°C° 0 mm 3 m/S 714 mmHg 56%
    01:00 +18°C° 0 mm 3 m/S 715 mmHg 59%
    02:00 +17°C° 0 mm 3 m/S 715 mmHg 61%
    03:00 +17°C° 0 mm 3 m/S 715 mmHg 61%
    04:00 +16°C° 0 mm 3 m/S 715 mmHg 61%
    05:00 +14°C° 0 mm 3 m/S 715 mmHg 61%
    06:00 +14°C° 0 mm 3 m/S 715 mmHg 59%
    07:00 +14°C° 0 mm 3 m/S 715 mmHg 57%
    08:00 +13°C° 0 mm 3 m/S 716 mmHg 55%
    09:00 +16°C° 0 mm 3 m/S 716 mmHg 51%
    10:00 +17°C° 0 mm 3 m/S 716 mmHg 46%
    11:00 +18°C° 0 mm 3 m/S 716 mmHg 42%
    12:00 +19°C° 0 mm 3 m/S 715 mmHg 41%
    13:00 +19°C° 0 mm 3 m/S 715 mmHg 40%
    14:00 +20°C° 0 mm 3 m/S 714 mmHg 39%
    15:00 +19°C° 0 mm 3 m/S 714 mmHg 41%
    16:00 +19°C° 0 mm 3 m/S 714 mmHg 43%
    17:00 +18°C° 0 mm 4 m/S 714 mmHg 45%
    18:00 +17°C° 0 mm 3 m/S 715 mmHg 49%
    19:00 +16°C° 0 mm 3 m/S 716 mmHg 53%
    20:00 +15°C° 0 mm 2 m/S 717 mmHg 57%
    21:00 +14°C° 0 mm 2 m/S 718 mmHg 59%
    22:00 +14°C° 0 mm 2 m/S 718 mmHg 60%
    23:00 +13°C° 0 mm 2 m/S 719 mmHg 62%

    31 Mai, Donnerstag

    Zeit Temperatur Niederschläge Wind Luftdruck Luftfeuchtigkeit
    00:00 +13°C° 0 mm 2 m/S 719 mmHg 62%
    01:00 +13°C° 0 mm 2 m/S 720 mmHg 62%
    02:00 +13°C° 0 mm 2 m/S 720 mmHg 62%
    03:00 +12°C° 0 mm 2 m/S 720 mmHg 62%
    04:00 +11°C° 0 mm 3 m/S 720 mmHg 63%
    05:00 +10°C° 0 mm 3 m/S 721 mmHg 63%
    06:00 +10°C° 0 mm 3 m/S 721 mmHg 63%
    07:00 +10°C° 0 mm 3 m/S 722 mmHg 64%
    08:00 +9°C° 0 mm 3 m/S 722 mmHg 64%
    09:00 +10°C° 0 mm 3 m/S 722 mmHg 60%
    10:00 +11°C° 0 mm 3 m/S 722 mmHg 56%
    11:00 +13°C° 0 mm 2 m/S 722 mmHg 53%
    12:00 +12°C° 0 mm 3 m/S 721 mmHg 50%
    13:00 +13°C° 0 mm 3 m/S 720 mmHg 48%
    14:00 +14°C° 0 mm 3 m/S 719 mmHg 46%
    15:00 +14°C° 0 mm 3 m/S 719 mmHg 47%
    16:00 +13°C° 0 mm 3 m/S 719 mmHg 47%
    17:00 +13°C° 0 mm 3 m/S 719 mmHg 48%
    18:00 +13°C° 0 mm 2 m/S 720 mmHg 52%
    19:00 +12°C° 0 mm 2 m/S 720 mmHg 56%
    20:00 +10°C° 0 mm 2 m/S 721 mmHg 60%
    21:00 +9°C° 0 mm 2 m/S 721 mmHg 61%
    22:00 +9°C° 0 mm 2 m/S 721 mmHg 62%
    23:00 +9°C° 0 mm 2 m/S 721 mmHg 63%
    Mehr zeigen